�������l�o���
Date,Time,MP-1(��Sv/h),MP-2(��Sv/h),MP-3(��Sv/h),MP-4(��Sv/h),MP-5(��Sv/h),MP-6(��Sv/h),MP-7(��Sv/h),MP-8(��Sv/h),����,����(m/s),���J
2020/04/26,00:00,0.685,0.986,0.651,1.189,0.852,0.397,0.687,0.654,��,7.4,��
2020/04/26,00:10,0.686,0.985,0.650,1.187,0.849,0.396,0.689,0.654,��쐼,7.6,��
2020/04/26,00:20,0.686,0.984,0.651,1.189,0.850,0.399,0.690,0.654,��쐼,8.3,��
2020/04/26,00:30,0.686,0.985,0.652,1.189,0.851,0.396,0.689,0.654,��쐼,7.3,��
2020/04/26,00:40,0.687,0.984,0.651,1.187,0.848,0.397,0.689,0.653,��,7.2,��
2020/04/26,00:50,0.685,0.986,0.651,1.189,0.851,0.398,0.687,0.654,��쐼,6.2,��
2020/04/26,01:00,0.686,0.982,0.651,1.187,0.849,0.398,0.689,0.654,��,5.2,��
2020/04/26,01:10,0.687,0.983,0.650,1.188,0.849,0.397,0.687,0.654,��,6.8,��
2020/04/26,01:20,0.686,0.983,0.651,1.186,0.852,0.397,0.688,0.652,��,7.1,��
2020/04/26,01:30,0.686,0.984,0.652,1.187,0.850,0.398,0.687,0.654,��,8.8,��
2020/04/26,01:40,0.685,0.987,0.651,1.186,0.848,0.398,0.689,0.654,��,7.7,��
2020/04/26,01:50,0.686,0.984,0.651,1.187,0.851,0.398,0.689,0.653,��,7.1,��
2020/04/26,02:00,0.686,0.985,0.651,1.188,0.849,0.397,0.686,0.654,��,7.0,��
2020/04/26,02:10,0.685,0.983,0.651,1.186,0.850,0.397,0.689,0.656,��,6.6,��
2020/04/26,02:20,0.686,0.985,0.652,1.187,0.849,0.397,0.687,0.652,��,6.3,��
2020/04/26,02:30,0.687,0.985,0.653,1.188,0.852,0.396,0.688,0.654,��,5.6,��
2020/04/26,02:40,0.686,0.982,0.652,1.187,0.851,0.396,0.689,0.654,��,5.1,��
2020/04/26,02:50,0.688,0.982,0.650,1.186,0.849,0.397,0.685,0.654,��,5.0,��
2020/04/26,03:00,0.686,0.984,0.650,1.186,0.849,0.396,0.688,0.654,��쐼,4.8,��
2020/04/26,03:10,0.686,0.984,0.651,1.186,0.851,0.396,0.689,0.652,��,4.5,��
2020/04/26,03:20,0.686,0.982,0.650,1.187,0.848,0.398,0.686,0.653,��,5.1,��
2020/04/26,03:30,0.685,0.985,0.652,1.188,0.851,0.396,0.687,0.653,��,5.3,��
2020/04/26,03:40,0.686,0.986,0.651,1.186,0.851,0.396,0.688,0.651,��쐼,5.6,��
2020/04/26,03:50,0.686,0.983,0.651,1.190,0.849,0.398,0.687,0.654,��,6.1,��
2020/04/26,04:00,0.686,0.984,0.651,1.188,0.847,0.397,0.688,0.653,��쐼,6.1,��
2020/04/26,04:10,0.686,0.982,0.650,1.189,0.850,0.396,0.689,0.654,��,7.3,��
2020/04/26,04:20,0.685,0.983,0.652,1.188,0.847,0.395,0.690,0.652,��쐼,8.8,��
2020/04/26,04:30,0.686,0.984,0.651,1.187,0.851,0.397,0.688,0.653,��,8.6,��
2020/04/26,04:40,0.684,0.983,0.649,1.188,0.850,0.397,0.688,0.653,��,7.9,��
2020/04/26,04:50,0.687,0.983,0.650,1.187,0.850,0.397,0.688,0.653,��,7.7,��
2020/04/26,05:00,0.687,0.983,0.649,1.190,0.849,0.397,0.689,0.652,��,9.2,��
2020/04/26,05:10,0.686,0.984,0.652,1.189,0.850,0.397,0.690,0.654,��,7.5,��
2020/04/26,05:20,0.687,0.985,0.649,1.187,0.848,0.396,0.688,0.653,��,7.3,��
2020/04/26,05:30,0.686,0.982,0.652,1.189,0.849,0.397,0.689,0.655,��,7.9,��
2020/04/26,05:40,0.687,0.985,0.650,1.189,0.850,0.397,0.691,0.652,��,7.3,��
2020/04/26,05:50,0.687,0.985,0.651,1.187,0.853,0.397,0.689,0.653,��,7.0,��
2020/04/26,06:00,0.686,0.984,0.651,1.188,0.850,0.396,0.691,0.653,��,5.0,��
2020/04/26,06:10,0.687,0.983,0.652,1.188,0.852,0.396,0.688,0.653,��쓌,5.8,��
2020/04/26,06:20,0.687,0.985,0.653,1.190,0.849,0.398,0.689,0.655,��,6.3,��
2020/04/26,06:30,0.686,0.988,0.653,1.188,0.851,0.397,0.690,0.655,��,5.3,��
2020/04/26,06:40,0.687,0.987,0.651,1.189,0.850,0.398,0.690,0.653,��,5.0,��
2020/04/26,06:50,0.686,0.987,0.653,1.189,0.850,0.398,0.691,0.655,��,4.3,��
2020/04/26,07:00,0.689,0.985,0.653,1.189,0.851,0.397,0.690,0.655,��쓌,3.2,��
2020/04/26,07:10,0.687,0.987,0.652,1.191,0.851,0.397,0.689,0.654,��,4.5,��
2020/04/26,07:20,0.687,0.983,0.654,1.190,0.853,0.397,0.692,0.655,��,4.8,��
2020/04/26,07:30,0.689,0.984,0.653,1.188,0.853,0.396,0.689,0.654,��,5.1,��
2020/04/26,07:40,0.686,0.985,0.654,1.191,0.850,0.395,0.690,0.655,��,4.7,��
2020/04/26,07:50,0.690,0.986,0.653,1.190,0.852,0.397,0.690,0.654,��,4.1,��
2020/04/26,08:00,0.689,0.984,0.654,1.187,0.849,0.398,0.689,0.656,��쐼,4.0,��
2020/04/26,08:10,0.689,0.986,0.652,1.192,0.851,0.397,0.691,0.656,��쐼,4.2,��
2020/04/26,08:20,0.689,0.984,0.652,1.192,0.850,0.399,0.690,0.654,��쐼,4.6,��
2020/04/26,08:30,0.688,0.986,0.651,1.192,0.851,0.397,0.690,0.654,��쐼,5.3,��
2020/04/26,08:40,0.690,0.989,0.653,1.191,0.849,0.398,0.688,0.653,��쐼,4.8,��
2020/04/26,08:50,0.690,0.986,0.654,1.193,0.851,0.398,0.689,0.652,��쐼,3.9,��
2020/04/26,09:00,0.689,0.987,0.652,1.191,0.851,0.398,0.688,0.652,��쐼,4.3,��
2020/04/26,09:10,0.690,0.987,0.653,1.191,0.853,0.398,0.690,0.652,��,3.5,��
2020/04/26,09:20,0.689,0.987,0.651,1.192,0.850,0.399,0.688,0.652,��,5.0,��
2020/04/26,09:30,0.688,0.988,0.651,1.191,0.851,0.397,0.689,0.651,��,5.9,��
2020/04/26,09:40,0.690,0.989,0.651,1.191,0.851,0.399,0.690,0.652,��쓌,6.5,��
2020/04/26,09:50,0.689,0.988,0.652,1.193,0.850,0.398,0.690,0.654,��,6.6,��
2020/04/26,10:00,0.689,0.990,0.652,1.192,0.852,0.398,0.690,0.653,��,7.4,��
2020/04/26,10:10,0.689,0.990,0.653,1.193,0.854,0.399,0.689,0.654,��쓌,7.3,��
2020/04/26,10:20,0.689,0.989,0.653,1.191,0.854,0.398,0.691,0.653,��쓌,6.6,��
2020/04/26,10:30,0.689,0.989,0.653,1.194,0.852,0.400,0.689,0.653,��쓌,9.2,��
2020/04/26,10:40,0.691,0.990,0.652,1.192,0.853,0.399,0.690,0.652,��쓌,9.3,��
2020/04/26,10:50,0.690,0.991,0.651,1.193,0.854,0.399,0.692,0.653,��쓌,10.2,��
2020/04/26,11:00,0.689,0.992,0.651,1.196,0.854,0.400,0.692,0.653,��쓌,10.7,��
2020/04/26,11:10,0.691,0.990,0.653,1.193,0.854,0.400,0.691,0.654,��쓌,10.2,��
2020/04/26,11:20,0.689,0.991,0.654,1.190,0.853,0.398,0.688,0.653,��쓌,10.7,��
2020/04/26,11:30,0.689,0.991,0.654,1.190,0.854,0.397,0.692,0.653,��쓌,7.8,��
2020/04/26,11:40,0.690,0.992,0.652,1.189,0.856,0.396,0.690,0.653,��쓌,7.4,��
2020/04/26,11:50,0.690,0.992,0.653,1.190,0.855,0.398,0.689,0.651,��쓌,6.8,��
2020/04/26,12:00,0.689,0.994,0.652,1.191,0.855,0.398,0.693,0.653,��,8.3,��
2020/04/26,12:10,0.693,0.995,0.655,1.192,0.856,0.399,0.692,0.655,��,7.6,��
2020/04/26,12:20,0.691,0.991,0.655,1.191,0.854,0.399,0.691,0.654,��,8.9,��
2020/04/26,12:30,0.691,0.991,0.655,1.190,0.857,0.400,0.691,0.652,��,9.9,��
2020/04/26,12:40,0.692,0.995,0.655,1.191,0.855,0.400,0.692,0.653,��,9.8,��
2020/04/26,12:50,0.691,0.995,0.654,1.192,0.857,0.399,0.691,0.655,��,8.4,��
2020/04/26,13:00,0.691,0.992,0.654,1.193,0.857,0.398,0.691,0.655,��,8.4,��
2020/04/26,13:10,0.692,0.992,0.656,1.194,0.857,0.400,0.692,0.654,��,6.1,��
2020/04/26,13:20,0.692,0.992,0.654,1.196,0.857,0.399,0.689,0.654,��,6.0,��
2020/04/26,13:30,0.690,0.993,0.654,1.195,0.857,0.399,0.691,0.654,��,6.3,��
2020/04/26,13:40,0.693,0.994,0.654,1.194,0.857,0.400,0.690,0.653,��,7.0,��
2020/04/26,13:50,0.691,0.995,0.654,1.194,0.855,0.399,0.691,0.655,��,3.2,��
2020/04/26,14:00,0.691,0.993,0.654,1.195,0.856,0.398,0.689,0.653,�k,6.6,��
2020/04/26,14:10,0.690,0.993,0.654,1.195,0.857,0.398,0.690,0.653,�k�k��,7.0,��
2020/04/26,14:20,0.692,0.993,0.653,1.196,0.858,0.400,0.691,0.653,�k�k��,9.6,��
2020/04/26,14:30,0.693,0.993,0.653,1.196,0.855,0.398,0.691,0.652,�k�k��,12.2,��
2020/04/26,14:40,0.691,0.992,0.654,1.195,0.857,0.397,0.690,0.654,�k�k��,11.9,��
2020/04/26,14:50,0.693,0.993,0.655,1.196,0.857,0.398,0.690,0.652,�k��,10.8,��
2020/04/26,15:00,0.691,0.993,0.655,1.196,0.858,0.397,0.691,0.654,�k��,9.6,��
2020/04/26,15:10,0.690,0.993,0.655,1.196,0.856,0.398,0.692,0.653,�k��,8.2,��
2020/04/26,15:20,0.690,0.993,0.654,1.196,0.858,0.397,0.690,0.653,�k�k��,7.7,��
2020/04/26,15:30,0.692,0.992,0.656,1.197,0.856,0.396,0.691,0.655,�k�k��,5.8,�L
2020/04/26,15:40,0.691,0.995,0.655,1.197,0.857,0.397,0.690,0.653,�k��,6.1,�L
2020/04/26,15:50,0.692,0.994,0.654,1.194,0.856,0.396,0.690,0.653,�k��,6.0,��
2020/04/26,16:00,0.691,0.991,0.655,1.198,0.858,0.396,0.690,0.654,�k�k��,4.2,�L
2020/04/26,16:10,0.690,0.994,0.654,1.198,0.854,0.396,0.691,0.655,�k�k��,3.3,�L
2020/04/26,16:20,0.690,0.995,0.654,1.200,0.858,0.397,0.690,0.653,�k�k��,2.6,�L
2020/04/26,16:30,0.692,0.996,0.655,1.198,0.856,0.395,0.692,0.654,�k�k��,2.5,��
2020/04/26,16:40,0.691,0.991,0.654,1.197,0.858,0.396,0.691,0.653,�k�k��,2.0,��
2020/04/26,16:50,0.691,0.993,0.657,1.200,0.857,0.396,0.691,0.656,�k,1.5,��
2020/04/26,17:00,0.692,0.996,0.656,1.198,0.857,0.396,0.690,0.654,�k�k��,0.9,��
2020/04/26,17:10,0.691,0.995,0.658,1.197,0.858,0.397,0.689,0.654,�k�k��,0.9,��
2020/04/26,17:20,0.690,0.996,0.658,1.199,0.855,0.398,0.691,0.655,���k��,0.9,��
2020/04/26,17:30,0.692,0.996,0.657,1.196,0.859,0.398,0.690,0.654,���k��,1.4,��
2020/04/26,17:40,0.693,0.993,0.657,1.197,0.859,0.397,0.690,0.654,��,0.6,��
2020/04/26,17:50,0.694,0.997,0.656,1.198,0.860,0.399,0.688,0.656,���k��,1.2,��
2020/04/26,18:00,0.693,0.995,0.659,1.198,0.858,0.399,0.689,0.655,��,0.9,��
2020/04/26,18:10,0.693,0.995,0.658,1.196,0.860,0.398,0.690,0.656,���k��,2.6,�L
2020/04/26,18:20,0.692,0.995,0.656,1.197,0.860,0.398,0.690,0.655,�k��,3.6,�L
2020/04/26,18:30,0.693,0.996,0.654,1.198,0.859,0.397,0.690,0.656,�k��,2.9,�L
2020/04/26,18:40,0.693,0.995,0.657,1.198,0.859,0.398,0.691,0.656,�k��,3.5,�L
2020/04/26,18:50,0.694,0.994,0.657,1.197,0.858,0.399,0.692,0.656,���k��,4.0,�L
2020/04/26,19:00,0.694,0.995,0.657,1.197,0.860,0.398,0.693,0.656,�k��,4.6,��
2020/04/26,19:10,0.694,0.996,0.657,1.196,0.861,0.398,0.689,0.657,�k��,5.0,��
2020/04/26,19:20,0.693,0.997,0.656,1.197,0.860,0.398,0.691,0.655,�k��,4.2,�L
2020/04/26,19:30,0.694,0.995,0.657,1.197,0.861,0.399,0.691,0.657,�k�k��,4.5,�L
2020/04/26,19:40,0.693,0.995,0.657,1.199,0.860,0.399,0.691,0.657,�k��,4.8,��
2020/04/26,19:50,0.694,0.995,0.655,1.199,0.857,0.401,0.690,0.656,�k��,3.4,�L
2020/04/26,20:00,0.690,0.992,0.658,1.199,0.857,0.400,0.689,0.656,�k��,3.2,�L
2020/04/26,20:10,0.693,0.987,0.656,1.198,0.856,0.400,0.688,0.656,�k��,4.8,�L
2020/04/26,20:20,0.691,0.985,0.657,1.197,0.854,0.402,0.687,0.656,�k��,5.2,�L
2020/04/26,20:30,0.690,0.981,0.657,1.194,0.853,0.402,0.689,0.655,�k��,5.2,�L
2020/04/26,20:40,0.694,0.978,0.656,1.190,0.851,0.402,0.686,0.656,���k��,5.7,�L
2020/04/26,20:50,0.692,0.980,0.657,1.189,0.849,0.402,0.686,0.653,�k��,5.4,�L
2020/04/26,21:00,0.690,0.979,0.656,1.188,0.850,0.402,0.689,0.652,�k��,5.3,��
2020/04/26,21:10,0.689,0.976,0.654,1.187,0.848,0.401,0.686,0.653,�k��,7.0,��
2020/04/26,21:20,0.686,0.975,0.652,1.184,0.847,0.400,0.687,0.654,�k��,6.4,��
2020/04/26,21:30,0.684,0.975,0.652,1.185,0.846,0.400,0.687,0.655,�k�k��,3.4,��
2020/04/26,21:40,0.682,0.973,0.649,1.184,0.844,0.398,0.686,0.654,�k,2.3,�L
2020/04/26,21:50,0.682,0.973,0.649,1.181,0.844,0.397,0.687,0.653,�k�k��,2.0,�L
2020/04/26,22:00,0.681,0.970,0.648,1.181,0.842,0.395,0.686,0.652,�k,2.0,�L
2020/04/26,22:10,0.681,0.969,0.647,1.181,0.840,0.396,0.685,0.652,�k�k��,2.5,�L
2020/04/26,22:20,0.678,0.970,0.645,1.181,0.842,0.395,0.686,0.653,-,CALM,��
2020/04/26,22:30,0.679,0.966,0.646,1.179,0.843,0.395,0.687,0.653,�k��,0.9,��
2020/04/26,22:40,0.679,0.970,0.645,1.181,0.841,0.394,0.687,0.652,�k��,2.6,�L
2020/04/26,22:50,0.677,0.968,0.647,1.180,0.840,0.393,0.685,0.651,���k��,4.3,�L
2020/04/26,23:00,0.679,0.969,0.646,1.180,0.841,0.394,0.685,0.653,���k��,4.9,�L
2020/04/26,23:10,0.678,0.965,0.645,1.180,0.842,0.393,0.687,0.652,���k��,5.5,�L
2020/04/26,23:20,0.676,0.967,0.645,1.180,0.840,0.393,0.685,0.651,���k��,6.2,�L
2020/04/26,23:30,0.676,0.968,0.646,1.180,0.840,0.394,0.685,0.652,���k��,4.7,�L
2020/04/26,23:40,0.678,0.966,0.644,1.180,0.840,0.395,0.684,0.653,���k��,3.5,�L
2020/04/26,23:50,0.677,0.967,0.645,1.178,0.841,0.394,0.685,0.652,�k��,5.5,��
